User: anonymous   Login
Location: Unspecified
(0.0000°N, 0.0000°E)
Time: 04:17:31
(UTC+00:00)
Language:

Tiangong 1 - Orbit

View from above orbital plane
View from above orbital plane
View from above satellite
View from above satellite

Ground track
Ground track

The orbit data is extracted from the following two-line orbital elements,

1 37820U 11053A   14330.74105519  .00087408  00000-0  93812-3 0  6094
2 37820 042.7713 050.8490 0016849 189.8812 310.6323 15.62621095181585
Epoch (UTC): 26 November 2014 17:47:07
Eccentricity: 0.0016849
inclination: 42.7713°
perigee height: 369 km
apogee height: 391 km
right ascension of ascending node: 50.8490°
argument of perigee: 189.8812°
revolutions per day: 15.62621095
mean anomaly at epoch: 310.6323°
orbit number at epoch: 18158

The dashed part of the orbit path shows where the satellite is in the earth's shadow,  

DLR